VK4CWL-13 Weather Reports


time (UTC)temp
C
wind
direction
speed
KPH
gust
KPH
rain 1hr
cm
rain 24hr
cm
rain mn
cm
humidity
%
barometer
mb
20260509021907 22 135 19.3 20.9 0.00 0.00 0.00 35 1020.0
20260509021408 22 146 16.1 20.9 0.00 0.00 0.00 35 1020.1
20260509020904 21 135 19.3 19.3 0.00 0.00 0.00 36 1020.2
20260509020018 21 135 16.1 16.1 0.00 0.00 0.00 36 1020.4
20260509015515 21 90 14.5 19.3 0.00 0.00 0.00 36 1020.4
20260509015013 21 135 16.1 17.7 0.00 0.00 0.00 37 1020.4
20260509014511 21 135 19.3 19.3 0.00 0.00 0.00 37 1020.6
20260509014010 21 191 11.3 20.9 0.00 0.00 0.00 38 1020.7
20260509013506 21 135 17.7 17.7 0.00 0.00 0.00 37 1020.8
20260509013004 20 135 14.5 20.9 0.00 0.00 0.00 38 1020.9
20260509012505 20 112 14.5 17.7 0.00 0.00 0.00 38 1021.0
20260509012003 20 135 9.7 25.7 0.00 0.00 0.00 38 1021.0
20260509011808 20 135 22.5 25.7 0.00 0.00 0.00 38 1021.2
20260509011305 20 157 20.9 20.9 0.00 0.00 0.00 39 1021.2
20260509010802 20 135 16.1 25.7 0.00 0.00 0.00 38 1021.4
20260509010302 20 157 16.1 22.5 0.00 0.00 0.00 39 1021.4
20260509005801 20 146 17.7 25.7 0.00 0.00 0.00 39 1021.6
20260509005256 20 135 16.1 27.4 0.00 0.00 0.00 39 1021.6
20260509004754 20 101 20.9 22.5 0.00 0.00 0.00 39 1021.7
20260509004253 19 135 22.5 24.1 0.00 0.00 0.00 39 1021.7
20260509003752 20 135 20.9 25.7 0.00 0.00 0.00 40 1021.9
20260509003247 19 157 17.7 27.4 0.00 0.00 0.00 40 1021.9
20260509002745 19 135 17.7 29.0 0.00 0.00 0.00 40 1022.2
20260509002255 19 135 19.3 33.8 0.00 0.00 0.00 40 1021.9
20260509002000 19 135 32.2 33.8 0.00 0.00 0.00 41 1022.1
20260509001459 19 90 20.9 27.4 0.00 0.00 0.00 41 1022.0
20260509000955 18 135 17.7 32.2 0.00 0.00 0.00 41 1022.1
20260509000803 18 135 32.2 32.2 0.00 0.00 0.00 41 1022.1
20260509000351 18 135 17.7 27.4 0.00 0.00 0.00 41 1022.1
20260508235347 18 135 22.5 30.6 0.00 0.00 0.00 43 1022.4
20260508234846 17 135 24.1 32.2 0.00 0.00 0.00 43 1022.5
20260508234408 17 135 29.0 29.0 0.00 0.00 0.00 43 1022.4
20260508233840 17 135 20.9 32.2 0.00 0.00 0.00 44 1022.4
20260508233337 17 146 29.0 30.6 0.00 0.00 0.00 44 1022.5
20260508232835 17 135 24.1 35.4 0.00 0.00 0.00 44 1022.4
20260508232333 17 135 24.1 29.0 0.00 0.00 0.00 44 1022.4
20260508231830 17 112 22.5 30.6 0.00 0.00 0.00 44 1022.4
20260508231328 16 146 25.7 27.4 0.00 0.00 0.00 45 1022.4
20260508230826 16 123 19.3 29.0 0.00 0.00 0.00 45 1022.4
20260508230324 16 135 24.1 30.6 0.00 0.00 0.00 45 1022.4
20260508225822 16 135 22.5 30.6 0.00 0.00 0.00 46 1022.4
20260508224820 15 135 16.1 27.4 0.00 0.00 0.00 47 1022.5
20260508224314 15 135 19.3 24.1 0.00 0.00 0.00 48 1022.3
20260508223814 15 135 12.9 27.4 0.00 0.00 0.00 49 1022.4
20260508223310 15 135 22.5 24.1 0.00 0.00 0.00 49 1022.2
20260508222807 14 135 20.9 24.1 0.00 0.00 0.00 50 1022.3
20260508222309 13 157 12.9 20.9 0.00 0.00 0.00 52 1022.4
20260508221803 13 135 16.1 20.9 0.00 0.00 0.00 53 1022.3
20260508221301 12 135 22.5 22.5 0.00 0.00 0.00 54 1022.2
20260508220759 12 135 17.7 19.3 0.00 0.00 0.00 55 1022.3
20260508220256 12 180 14.5 14.5 0.00 0.00 0.00 57 1022.3
20260508215754 11 135 8.0 8.0 0.00 0.00 0.00 58 1022.3
20260508215251 11 90 4.8 6.4 0.00 0.00 0.00 60 1022.3
20260508214749 10 90 3.2 3.2 0.00 0.00 0.00 61 1022.3
20260508214247 10 123 1.6 4.8 0.00 0.00 0.00 61 1022.3
20260508213744 10 90 1.6 3.2 0.00 0.00 0.00 61 1022.2
20260508213242 9 135 3.2 3.2 0.00 0.00 0.00 62 1022.2
20260508212740 9 135 0.0 1.6 0.00 0.00 0.00 62 1022.2
20260508212242 8 135 1.6 1.6 0.00 0.00 0.00 62 1022.1
20260508211736 8 135 1.6 4.8 0.00 0.00 0.00 62 1022.0
20260508211233 8 168 3.2 3.2 0.00 0.00 0.00 63 1021.9
20260508210731 8 157 1.6 3.2 0.00 0.00 0.00 63 1021.8
20260508210228 8 168 3.2 3.2 0.00 0.00 0.00 63 1021.8
20260508205726 8 157 3.2 3.2 0.00 0.00 0.00 63 1021.6
20260508205224 7 135 1.6 4.8 0.00 0.00 0.00 63 1021.6
20260508204721 7 180 4.8 4.8 0.00 0.00 0.00 64 1021.6
20260508203719 7 180 3.2 3.2 0.00 0.00 0.00 63 1021.6
20260508203215 7 135 1.6 1.6 0.00 0.00 0.00 62 1021.5
20260508202713 7 180 1.6 1.6 0.00 0.00 0.00 62 1021.3
20260508202211 7 180 1.6 1.6 0.00 0.00 0.00 62 1021.3
20260508201708 7 180 0.0 3.2 0.00 0.00 0.00 62 1021.3
20260508201205 7 135 3.2 3.2 0.00 0.00 0.00 62 1021.3
20260508200703 7 135 1.6 1.6 0.00 0.00 0.00 62 1021.1
20260508200201 7 180 1.6 1.6 0.00 0.00 0.00 61 1021.2
20260508195659 7 180 0.0 0.0 0.00 0.00 0.00 61 1021.1
20260508195156 7 135 3.2 3.2 0.00 0.00 0.00 61 1021.1
20260508194654 7 168 1.6 3.2 0.00 0.00 0.00 61 1021.0
20260508194152 7 180 3.2 3.2 0.00 0.00 0.00 61 1020.9
20260508193650 7 135 1.6 1.6 0.00 0.00 0.00 61 1020.9
20260508193148 7 135 1.6 1.6 0.00 0.00 0.00 60 1020.9
20260508192645 7 180 0.0 1.6 0.00 0.00 0.00 60 1020.8
20260508191640 8 135 0.0 0.0 0.00 0.00 0.00 60 1020.8
20260508191138 8 180 3.2 3.2 0.00 0.00 0.00 60 1020.7
20260508190636 8 157 3.2 3.2 0.00 0.00 0.00 60 1020.7
20260508190133 7 135 3.2 4.8 0.00 0.00 0.00 60 1020.7
20260508185631 7 157 4.8 4.8 0.00 0.00 0.00 60 1020.8
20260508185129 7 180 3.2 4.8 0.00 0.00 0.00 59 1020.7
20260508184627 7 135 1.6 3.2 0.00 0.00 0.00 59 1020.8
20260508184125 7 135 0.0 1.6 0.00 0.00 0.00 59 1020.8
20260508183622 7 33 0.0 0.0 0.00 0.00 0.00 58 1020.7
20260508183119 8 135 0.0 1.6 0.00 0.00 0.00 58 1020.6
20260508182617 8 135 1.6 3.2 0.00 0.00 0.00 58 1020.5
20260508182115 8 135 1.6 6.4 0.00 0.00 0.00 59 1020.4
20260508181613 7 146 1.6 4.8 0.00 0.00 0.00 59 1020.6
20260508181110 7 135 4.8 8.0 0.00 0.00 0.00 59 1020.4
20260508180608 7 135 6.4 6.4 0.00 0.00 0.00 59 1020.4
20260508180106 7 180 4.8 6.4 0.00 0.00 0.00 58 1020.3
20260508175604 7 180 3.2 6.4 0.00 0.00 0.00 59 1020.3
20260508175105 6 180 3.2 4.8 0.00 0.00 0.00 59 1020.3
20260508174559 6 157 3.2 6.4 0.00 0.00 0.00 59 1020.4
20260508174056 6 180 3.2 3.2 0.00 0.00 0.00 57 1020.3
20260508173554 6 180 3.2 3.2 0.00 0.00 0.00 56 1020.2
20260508173052 6 157 1.6 3.2 0.00 0.00 0.00 56 1020.1
20260508172550 6 180 1.6 1.6 0.00 0.00 0.00 56 1020.3
20260508172047 6 135 1.6 3.2 0.00 0.00 0.00 56 1020.2
20260508171545 6 168 3.2 3.2 0.00 0.00 0.00 56 1020.2
20260508171043 6 202 0.0 1.6 0.00 0.00 0.00 55 1020.2
20260508170541 6 180 1.6 1.6 0.00 0.00 0.00 55 1020.2
20260508170039 6 180 1.6 1.6 0.00 0.00 0.00 55 1020.3
20260508165536 6 180 1.6 3.2 0.00 0.00 0.00 55 1020.3
20260508165035 6 180 3.2 3.2 0.00 0.00 0.00 55 1020.2
20260508164531 6 270 1.6 1.6 0.00 0.00 0.00 55 1020.2
20260508164029 6 270 1.6 1.6 0.00 0.00 0.00 55 1020.2
20260508163527 6 270 0.0 0.0 0.00 0.00 0.00 55 1020.0
20260508163025 6 180 0.0 0.0 0.00 0.00 0.00 55 1020.0
20260508162522 6 180 1.6 1.6 0.00 0.00 0.00 55 1019.9
20260508162020 6 135 1.6 1.6 0.00 0.00 0.00 54 1020.0
20260508161518 6 180 1.6 1.6 0.00 0.00 0.00 53 1020.0
20260508161016 6 315 0.0 0.0 0.00 0.00 0.00 53 1020.0
20260508160513 7 315 0.0 0.0 0.00 0.00 0.00 52 1020.1
20260508160010 7 315 0.0 0.0 0.00 0.00 0.00 52 1020.0
20260508155508 7 315 0.0 0.0 0.00 0.00 0.00 51 1019.9
20260508155006 7 123 1.6 1.6 0.00 0.00 0.00 50 1019.9
20260508154504 7 90 0.0 3.2 0.00 0.00 0.00 50 1019.9
20260508154002 7 180 3.2 3.2 0.00 0.00 0.00 50 1019.9
20260508153459 7 180 1.6 3.2 0.00 0.00 0.00 50 1019.9
20260508152957 7 180 3.2 3.2 0.00 0.00 0.00 50 1020.0
20260508152455 7 202 1.6 1.6 0.00 0.00 0.00 50 1020.1
20260508151953 7 270 0.0 0.0 0.00 0.00 0.00 50 1020.2
20260508151450 7 135 0.0 0.0 0.00 0.00 0.00 50 1020.2
20260508150947 7 270 0.0 0.0 0.00 0.00 0.00 50 1020.1
20260508150445 7 270 0.0 0.0 0.00 0.00 0.00 50 1020.1
20260508145943 7 225 0.0 1.6 0.00 0.00 0.00 49 1020.1
20260508145441 7 270 1.6 1.6 0.00 0.00 0.00 49 1020.2
20260508144939 7 315 0.0 1.6 0.00 0.00 0.00 49 1020.2
20260508144437 7 315 0.0 0.0 0.00 0.00 0.00 49 1020.2
20260508143934 8 180 0.0 1.6 0.00 0.00 0.00 48 1020.2
20260508143432 8 180 0.0 1.6 0.00 0.00 0.00 48 1020.4
20260508142930 8 90 0.0 1.6 0.00 0.00 0.00 48 1020.4
20260508142427 8 225 0.0 0.0 0.00 0.00 0.00 47 1020.4
20260508141925 8 270 0.0 0.0 0.00 0.00 0.00 47 1020.5
20260508141422 8 225 0.0 1.6 0.00 0.00 0.00 47 1020.5
20260508140923 8 225 0.0 1.6 0.00 0.00 0.00 47 1020.4
20260508140418 8 180 0.0 0.0 0.00 0.00 0.00 47 1020.4
20260508135916 8 180 0.0 0.0 0.00 0.00 0.00 47 1020.4
20260508135414 8 180 0.0 0.0 0.00 0.00 0.00 47 1020.4
20260508134911 9 180 0.0 1.6 0.00 0.00 0.00 47 1020.3
20260508134409 9 180 0.0 1.6 0.00 0.00 0.00 47 1020.4
20260508133907 9 180 1.6 1.6 0.00 0.00 0.00 47 1020.4
20260508133404 10 157 1.6 3.2 0.00 0.00 0.00 46 1020.5
20260508132902 10 157 4.8 4.8 0.00 0.00 0.00 45 1020.3
20260508132359 10 180 4.8 4.8 0.00 0.00 0.00 45 1020.4
20260508131857 10 180 4.8 6.4 0.00 0.00 0.00 45 1020.6
20260508131355 10 191 4.8 6.4 0.00 0.00 0.00 45 1020.5
20260508130853 10 168 6.4 6.4 0.00 0.00 0.00 45 1020.5
20260508130351 10 180 6.4 8.0 0.00 0.00 0.00 44 1020.4
20260508125848 10 168 8.0 9.7 0.00 0.00 0.00 44 1020.5
20260508125346 10 157 8.0 8.0 0.00 0.00 0.00 44 1020.6
20260508124844 10 168 6.4 6.4 0.00 0.00 0.00 44 1020.7
20260508124341 10 157 4.8 6.4 0.00 0.00 0.00 44 1020.6
20260508123839 10 180 4.8 4.8 0.00 0.00 0.00 43 1020.6
20260508123336 10 180 3.2 6.4 0.00 0.00 0.00 43 1020.6
20260508122834 10 168 4.8 6.4 0.00 0.00 0.00 43 1020.6
20260508122332 11 157 4.8 9.7 0.00 0.00 0.00 43 1020.6
20260508121830 11 180 8.0 8.0 0.00 0.00 0.00 43 1020.7
20260508121328 11 180 6.4 9.7 0.00 0.00 0.00 42 1020.8
20260508120826 11 135 8.0 9.7 0.00 0.00 0.00 42 1020.7
20260508120323 11 180 4.8 8.0 0.00 0.00 0.00 42 1020.7
20260508115821 11 157 6.4 8.0 0.00 0.00 0.00 41 1020.6
20260508115318 11 146 6.4 8.0 0.00 0.00 0.00 41 1020.5
20260508114816 11 157 6.4 8.0 0.00 0.00 0.00 41 1020.6
20260508114314 11 157 6.4 8.0 0.00 0.00 0.00 41 1020.6
20260508113814 11 157 8.0 8.0 0.00 0.00 0.00 40 1020.6
20260508113309 11 135 9.7 9.7 0.00 0.00 0.00 40 1020.7
20260508112809 11 146 8.0 9.7 0.00 0.00 0.00 40 1020.8
20260508112307 11 135 6.4 8.0 0.00 0.00 0.00 40 1020.6
20260508111803 12 168 8.0 8.0 0.00 0.00 0.00 40 1020.7
20260508111300 12 157 8.0 9.7 0.00 0.00 0.00 40 1020.7
20260508110758 12 157 6.4 8.0 0.00 0.00 0.00 39 1020.8
20260508110255 12 157 8.0 8.0 0.00 0.00 0.00 39 1020.7
20260508105753 12 135 6.4 8.0 0.00 0.00 0.00 39 1020.7
20260508105251 12 146 8.0 9.7 0.00 0.00 0.00 39 1020.8
20260508104750 12 157 8.0 9.7 0.00 0.00 0.00 38 1020.7
20260508104248 12 157 6.4 9.7 0.00 0.00 0.00 38 1020.7
20260508103744 12 135 8.0 9.7 0.00 0.00 0.00 38 1020.5
20260508103242 12 180 8.0 9.7 0.00 0.00 0.00 38 1020.5
20260508102740 12 146 8.0 9.7 0.00 0.00 0.00 37 1020.5
20260508102239 12 180 4.8 8.0 0.00 0.00 0.00 37 1020.3
20260508101735 12 135 8.0 9.7 0.00 0.00 0.00 37 1020.2
20260508101233 13 157 6.4 9.7 0.00 0.00 0.00 36 1020.2
20260508100733 13 157 8.0 9.7 0.00 0.00 0.00 36 1020.2
20260508100230 13 146 6.4 8.0 0.00 0.00 0.00 36 1020.3
20260508095725 13 146 6.4 11.3 0.00 0.00 0.00 35 1020.2
20260508095223 13 135 8.0 9.7 0.00 0.00 0.00 35 1020.2
20260508094724 13 168 8.0 9.7 0.00 0.00 0.00 35 1020.2
20260508094221 13 168 8.0 9.7 0.00 0.00 0.00 34 1020.1
20260508093717 13 168 8.0 8.0 0.00 0.00 0.00 34 1020.2
20260508093217 13 157 6.4 6.4 0.00 0.00 0.00 33 1020.1
20260508092715 13 157 6.4 6.4 0.00 0.00 0.00 32 1020.0
20260508092213 14 157 6.4 6.4 0.00 0.00 0.00 32 1019.9
20260508091708 14 135 6.4 6.4 0.00 0.00 0.00 32 1019.8
20260508091206 14 146 6.4 8.0 0.00 0.00 0.00 31 1019.6
20260508090704 15 135 6.4 8.0 0.00 0.00 0.00 31 1019.6
20260508090202 15 157 6.4 9.7 0.00 0.00 0.00 30 1019.5
20260508085700 15 168 8.0 8.0 0.00 0.00 0.00 30 1019.5
20260508085157 15 157 8.0 8.0 0.00 0.00 0.00 30 1019.4
20260508084655 15 157 9.7 9.7 0.00 0.00 0.00 30 1019.3
20260508084154 15 168 6.4 9.7 0.00 0.00 0.00 29 1019.2
20260508083651 15 157 11.3 11.3 0.00 0.00 0.00 29 1019.0
20260508083149 16 135 9.7 12.9 0.00 0.00 0.00 29 1019.0
20260508082647 16 146 11.3 12.9 0.00 0.00 0.00 28 1018.9
20260508081640 16 157 8.0 9.7 0.00 0.00 0.00 28 1018.7
20260508081137 16 157 8.0 11.3 0.00 0.00 0.00 27 1018.7
20260508080635 16 180 11.3 12.9 0.00 0.00 0.00 27 1018.7
20260508080135 17 157 8.0 11.3 0.00 0.00 0.00 27 1018.6
20260508075632 17 157 9.7 11.3 0.00 0.00 0.00 26 1018.6
20260508075130 17 135 9.7 11.3 0.00 0.00 0.00 25 1018.4
20260508074628 18 135 8.0 8.0 0.00 0.00 0.00 24 1018.2
20260508074128 18 157 6.4 8.0 0.00 0.00 0.00 24 1018.1
20260508073624 18 157 3.2 4.8 0.00 0.00 0.00 24 1018.1
20260508073120 18 180 4.8 6.4 0.00 0.00 0.00 23 1018.0
20260508072618 19 180 3.2 9.7 0.00 0.00 0.00 23 1018.0
20260508072116 19 168 3.2 6.4 0.00 0.00 0.00 22 1017.9
20260508071615 20 157 0.0 8.0 0.00 0.00 0.00 22 1017.8
20260508071112 20 135 4.8 8.0 0.00 0.00 0.00 22 1017.6
20260508070611 20 146 6.4 9.7 0.00 0.00 0.00 21 1017.6
20260508070107 20 157 8.0 12.9 0.00 0.00 0.00 21 1017.5
20260508065606 21 135 14.5 16.1 0.00 0.00 0.00 20 1017.5
20260508065105 21 180 11.3 16.1 0.00 0.00 0.00 20 1017.4
20260508064601 21 157 16.1 16.1 0.00 0.00 0.00 20 1017.3
20260508064057 21 146 12.9 14.5 0.00 0.00 0.00 20 1017.5
20260508063557 21 168 11.3 17.7 0.00 0.00 0.00 20 1017.5
20260508063054 21 180 11.3 16.1 0.00 0.00 0.00 20 1017.4
20260508062552 21 135 14.5 19.3 0.00 0.00 0.00 19 1017.4
20260508062050 21 180 14.5 17.7 0.00 0.00 0.00 19 1017.3
20260508061546 21 135 11.3 17.7 0.00 0.00 0.00 20 1017.3
20260508061046 22 157 11.3 22.5 0.00 0.00 0.00 20 1017.3
20260508060542 22 157 11.3 17.7 0.00 0.00 0.00 19 1017.2
20260508060042 22 168 8.0 17.7 0.00 0.00 0.00 20 1017.3
20260508055538 22 135 9.7 19.3 0.00 0.00 0.00 20 1017.3
20260508055036 22 180 8.0 17.7 0.00 0.00 0.00 20 1017.3
20260508054532 22 135 12.9 17.7 0.00 0.00 0.00 20 1017.3
20260508054030 22 180 9.7 14.5 0.00 0.00 0.00 21 1017.4
20260508053529 22 180 9.7 12.9 0.00 0.00 0.00 21 1017.3
20260508053027 22 157 14.5 25.7 0.00 0.00 0.00 20 1017.3
20260508052525 22 135 16.1 19.3 0.00 0.00 0.00 19 1017.3
20260508052021 22 180 11.3 19.3 0.00 0.00 0.00 20 1017.1
20260508051521 22 135 12.9 20.9 0.00 0.00 0.00 19 1017.2
20260508051017 22 157 8.0 20.9 0.00 0.00 0.00 21 1017.4
20260508050515 22 135 17.7 20.9 0.00 0.00 0.00 19 1017.3
20260508050012 22 180 17.7 24.1 0.00 0.00 0.00 18 1017.3
20260508045509 22 180 17.7 19.3 0.00 0.00 0.00 20 1017.2
20260508045008 22 146 8.0 19.3 0.00 0.00 0.00 20 1017.3
20260508044505 22 168 19.3 19.3 0.00 0.00 0.00 20 1017.3
20260508044313 22 180 6.4 16.1 0.00 0.00 0.00 20 1017.3
20260508043814 22 180 8.0 17.7 0.00 0.00 0.00 20 1017.3
20260508043310 22 180 16.1 22.5 0.00 0.00 0.00 20 1017.4
20260508042808 21 135 22.5 22.5 0.00 0.00 0.00 19 1017.3
20260508042504 21 157 8.0 19.3 0.00 0.00 0.00 20 1017.4
20260508042002 21 135 17.7 25.7 0.00 0.00 0.00 19 1017.5
20260508041500 21 135 20.9 20.9 0.00 0.00 0.00 19 1017.4
20260508040958 21 180 11.3 19.3 0.00 0.00 0.00 20 1017.4
20260508040455 21 180 19.3 25.7 0.00 0.00 0.00 19 1017.4
20260508035954 21 135 17.7 22.5 0.00 0.00 0.00 20 1017.5
20260508035451 21 157 9.7 16.1 0.00 0.00 0.00 20 1017.6
20260508034446 21 146 20.9 20.9 0.00 0.00 0.00 19 1017.8
20260508034304 21 135 6.4 24.1 0.00 0.00 0.00 20 1017.9
20260508033801 21 168 17.7 17.7 0.00 0.00 0.00 20 1018.0
20260508033258 21 135 12.9 25.7 0.00 0.00 0.00 19 1018.0
20260508032756 21 157 14.5 22.5 0.00 0.00 0.00 20 1018.1
20260508032254 21 135 19.3 20.9 0.00 0.00 0.00 20 1018.2
20260508031752 21 157 16.1 24.1 0.00 0.00 0.00 19 1018.3
20260508031251 21 135 27.4 27.4 0.00 0.00 0.00 20 1018.5
20260508030748 21 157 22.5 24.1 0.00 0.00 0.00 20 1018.6
20260508030245 21 135 20.9 22.5 0.00 0.00 0.00 21 1018.6
20260508025743 20 135 9.7 24.1 0.00 0.00 0.00 21 1018.7
20260508025412 20 157 24.1 24.1 0.00 0.00 0.00 21 1018.8
20260508025238 20 135 9.7 20.9 0.00 0.00 0.00 22 1018.8
20260508024737 20 157 20.9 22.5 0.00 0.00 0.00 22 1018.9
20260508024233 20 135 12.9 27.4 0.00 0.00 0.00 22 1018.8
20260508023732 20 135 24.1 25.7 0.00 0.00 0.00 22 1018.9
20260508023621 20 146 8.0 24.1 0.00 0.00 0.00 24 1019.1
20260508023118 20 180 12.9 25.7 0.00 0.00 0.00 23 1019.1
20260508022836 20 135 25.7 25.7 0.00 0.00 0.00 23 1019.2
20260508022654 20 191 12.9 25.7 0.00 0.00 0.00 23 1019.2
20260508022402 20 135 25.7 25.7 0.00 0.00 0.00 23 1019.1
20260508022250 20 180 9.7 24.1 0.00 0.00 0.00 23 1019.1